Location: Unspecified
(47.7959°N, 0.0000°E)
Time: 02:54:04
(UTC+00:00)

Cosmos 990 Rocket - Visible Passes

Search period start: 04 April 2026 00:00
Search period end: 14 April 2026 00:00
Orbit: 743 x 763 km, 74.0° (Epoch: 29 March)

Date Brightness Start Highest point End Pass type
(mag) Time Alt. Az. Time Alt. Az. Time Alt. Az.
4 Apr 6.8 04:26:03 10° N 04:29:51 20° NE 04:33:37 10° E visible
4 Apr 5.0 19:04:23 10° SSE 19:08:26 24° E 19:12:30 10° NE visible
4 Apr 4.8 20:44:47 10° SW 20:49:49 51° WNW 20:54:52 10° NNE visible
4 Apr 7.1 22:31:41 10° NW 22:32:51 11° NW 22:34:00 10° NNW visible
5 Apr 7.1 03:45:20 10° NNE 03:47:42 13° NE 03:50:02 10° ENE visible
5 Apr 3.9 20:02:56 10° SSW 20:08:06 89° WNW 20:13:17 10° NNE visible
5 Apr 6.8 21:47:20 10° W 21:50:38 17° NW 21:53:54 10° N visible
6 Apr 5.7 04:43:54 10° N 04:48:42 38° ENE 04:53:27 10° SE visible
6 Apr 4.1 19:21:33 10° S 19:26:32 52° ESE 19:31:31 10° NNE visible
6 Apr 6.1 21:04:15 10° WSW 21:08:33 26° NW 21:12:53 10° N visible
7 Apr 6.5 04:02:38 10° N 04:06:45 24° NE 04:10:51 10° ESE visible
7 Apr 5.3 20:21:45 10° SW 20:26:39 43° WNW 20:31:33 10° NNE visible
8 Apr 7.1 03:21:42 10° N 03:24:39 15° NE 03:27:36 10° E visible
8 Apr 4.2 19:39:44 10° SSW 19:44:53 74° WNW 19:50:03 10° NNE visible
8 Apr 7.1 21:24:49 10° WNW 21:27:34 14° NW 21:30:21 10° NNW visible
9 Apr 5.2 04:20:35 10° NNW 04:25:32 46° ENE 04:30:27 10° SE visible
9 Apr 6.5 20:41:27 10° WSW 20:45:27 22° NW 20:49:28 10° N visible
10 Apr 6.2 03:39:14 10° N 03:43:38 28° NE 03:48:01 10° ESE visible
10 Apr 5.7 19:58:46 10° SW 20:03:29 36° WNW 20:08:13 10° N visible
11 Apr 6.9 02:58:09 10° N 03:01:36 18° NE 03:05:01 10° E visible
11 Apr 4.0 04:38:53 10° NNW 04:44:02 85° WSW 04:49:09 10° SSE visible
11 Apr 4.7 19:16:35 10° SW 19:21:41 61° WNW 19:26:47 10° NNE visible
11 Apr 7.3 21:02:28 10° WNW 21:04:32 12° NW 21:06:36 10° NNW visible
12 Apr 7.3 02:17:48 10° NNE 02:19:23 11° NE 02:20:59 10° ENE visible
12 Apr 4.8 03:57:17 10° NNW 04:02:21 55° ENE 04:07:22 10° SE visible
12 Apr 6.9 20:18:43 10° W 20:22:22 19° NW 20:26:01 10° N visible
13 Apr 5.8 03:15:53 10° N 03:20:30 33° ENE 03:25:06 10° ESE visible
13 Apr 6.2 19:35:50 10° WSW 19:40:21 30° NW 19:44:52 10° N visible
